DW8458 Weather Reports


Display with metric or nautical units.
time (UTC)temp
F
wind
direction
speed
MPH
gust
MPH
rain 1hr
in
rain 24hr
in
rain mn
in
humidity
%
barometer
mb
20260505210037 0 0.0 0.0 0.00 0.00 0.00 1014.0
20260505204534 0 0.0 0.0 0.00 0.00 0.00 1014.1
20260505203050 49 103 2.0 9.0 0.00 0.00 0.00 77 1014.0
20260505201536 49 103 3.0 9.0 0.00 0.00 0.00 77 1013.9
20260505200030 50 103 0.0 5.0 0.00 0.00 0.00 78 1013.7
20260505194529 50 103 1.0 4.0 0.00 0.00 0.00 78 1013.6
20260505193032 50 103 1.0 8.0 0.00 0.00 0.00 77 1013.5
20260505191529 51 103 1.0 4.0 0.00 0.00 0.00 76 1013.3
20260505190033 51 103 2.0 7.0 0.00 0.00 0.00 75 1013.1
20260505184534 52 103 2.0 10.0 0.00 0.00 0.00 75 1013.0
20260505183027 52 103 3.0 10.0 0.00 0.00 0.00 74 1012.9
20260505181533 53 103 5.0 14.0 0.00 0.00 0.00 74 1012.8
20260505180027 55 103 5.0 16.0 0.00 0.00 0.00 72 1012.6
20260505174532 56 103 5.0 12.0 0.00 0.00 0.00 65 1012.4
20260505173025 56 103 6.0 9.0 0.00 0.00 0.00 64 1012.5
20260505171525 57 103 3.0 11.0 0.00 0.00 0.00 65 1012.6
20260505170024 58 103 5.0 10.0 0.00 0.00 0.00 64 1012.5
20260505164524 58 103 2.0 7.0 0.00 0.00 0.00 64 1012.5
20260505163029 58 103 3.0 9.0 0.00 0.00 0.00 63 1012.4
20260505161523 59 103 1.0 6.0 0.00 0.00 0.00 63 1012.5
20260505153022 60 103 2.0 8.0 0.00 0.00 0.00 61 1012.7
20260505151521 60 103 3.0 7.0 0.00 0.00 0.00 64 1012.7
20260505124515 60 103 3.0 8.0 0.00 0.00 0.00 64 1012.9
20260505123014 60 103 2.0 7.0 0.00 0.00 0.00 66 1012.8
20260505121516 60 103 1.0 8.0 0.00 0.00 0.00 65 1012.7
20260505120014 61 103 3.0 10.0 0.00 0.00 0.00 65 1012.8
20260505114516 60 103 1.0 6.0 0.00 0.00 0.00 66 1012.8
20260505113017 61 103 1.0 10.0 0.00 0.00 0.00 67 1012.8
20260505111511 60 103 3.0 8.0 0.00 0.00 0.00 63 1012.9
20260505101504 60 103 3.0 9.0 0.00 0.00 0.00 63 1013.3
20260505100002 60 103 2.0 8.0 0.00 0.00 0.00 62 1013.3
20260505094558 60 103 1.0 7.0 0.00 0.00 0.00 64 1013.4
20260505093055 59 103 2.0 9.0 0.00 0.00 0.00 66 1013.5
20260505091551 58 103 2.0 9.0 0.00 0.00 0.00 67 1013.4
20260505090059 57 103 0.0 9.0 0.00 0.00 0.00 70 1013.6
20260505084549 56 103 1.0 8.0 0.00 0.00 0.00 73 1013.7
20260505083040 54 324 0.0 5.0 0.00 0.00 0.00 75 1013.7
20260505081542 53 103 1.0 5.0 0.00 0.00 0.00 76 1013.7
20260505080034 53 103 0.0 5.0 0.00 0.00 0.00 76 1013.7
20260505074533 53 103 0.0 5.0 0.00 0.00 0.00 78 1013.6
20260505073037 53 103 1.0 6.0 0.00 0.00 0.00 84 1013.6
20260505071526 50 103 0.0 5.0 0.00 0.00 0.00 90 1013.6
20260505070022 47 103 0.0 4.0 0.00 0.00 0.00 91 1013.9
20260505064522 47 103 0.0 0.0 0.00 0.00 0.00 91 1014.0
20260505063019 46 103 0.0 3.0 0.00 0.00 0.00 91 1013.9
20260505061519 46 103 0.0 3.0 0.00 0.00 0.00 92 1014.0
20260505060029 46 103 1.0 4.0 0.00 0.00 0.00 92 1014.0
20260505054531 45 103 0.0 1.0 0.00 0.00 0.00 92 1014.0
20260505053014 44 103 0.0 1.0 0.00 0.00 0.00 92 1014.1
20260505051511 43 103 0.0 0.0 0.00 0.00 0.00 92 1013.9
20260505041503 44 103 0.0 0.0 0.00 0.00 0.00 91 1013.7
20260505040002 44 103 0.0 0.0 0.00 0.00 0.00 91 1013.6
20260505034501 44 103 0.0 0.0 0.00 0.00 0.00 91 1013.6
20260505033116 44 103 0.0 0.0 0.00 0.00 0.00 90 1013.7
20260505031557 45 103 0.0 0.0 0.00 0.00 0.00 90 1013.6
20260505030056 45 103 0.0 0.0 0.00 0.00 0.00 90 1013.6
20260505024558 46 103 0.0 0.0 0.00 0.00 0.00 90 1013.6
20260505023101 47 103 0.0 0.0 0.00 0.00 0.00 90 1013.7
20260505021550 47 103 0.0 0.0 0.00 0.00 0.00 90 1013.7
20260505020051 48 103 0.0 0.0 0.00 0.00 0.00 89 1013.9
20260505014544 48 103 0.0 0.0 0.00 0.00 0.00 90 1014.1
20260505013042 48 103 0.0 0.0 0.00 0.00 0.00 90 1014.2
20260505011541 49 103 0.0 0.0 0.00 0.00 0.00 90 1014.2
20260505010042 49 103 0.0 0.0 0.00 0.00 0.00 90 1014.4
20260505004546 49 103 0.0 0.0 0.00 0.00 0.00 90 1014.5
20260505003039 49 103 0.0 0.0 0.00 0.00 0.00 90 1014.6
20260505001536 49 125 0.0 0.0 0.00 0.00 0.00 90 1014.7
20260505000036 49 125 0.0 0.0 0.00 0.00 0.00 89 1014.7
20260504234548 49 125 0.0 0.0 0.00 0.00 0.00 89 1014.8
20260504233035 49 125 0.0 0.0 0.00 0.00 0.00 89 1014.9
20260504231542 49 125 0.0 0.0 0.00 0.00 0.00 89 1014.9
20260504230031 49 125 0.0 0.0 0.00 0.00 0.00 89 1014.8
20260504224530 49 124 0.0 0.0 0.00 0.00 0.00 89 1014.8
20260504223030 49 124 0.0 0.0 0.00 0.00 0.00 88 1015.0
20260504221530 49 125 0.0 0.0 0.00 0.00 0.00 88 1015.2
20260504220030 49 124 0.0 0.0 0.00 0.00 0.00 88 1015.2
20260504214535 50 125 0.0 0.0 0.00 0.00 0.00 87 1015.2
20260504213030 50 125 0.0 0.0 0.00 0.00 0.00 87 1015.1
20260504211528 50 103 0.0 0.0 0.00 0.00 0.00 87 1015.0